Location: Brachstadt
(48.6975°N, 10.6755°E)
Time: 15:45:38
(UTC+00:00)

YAOGAN 1 - Pass Details

Date: 18 September 2020
Orbit: 618 x 620 km, 97.9° (Epoch: 24 October)

Event Time Altitude Azimuth Distance (km) Brightness Sun altitude
Rises 18:21:58 0° 183° (S) 2,885 5.9 -10.4°
Reaches altitude 10° 18:24:14 10° 191° (S) 1,984 5.1 -10.8°
Maximum altitude 18:28:20 41° 262° (W) 900 4.0 -11.5°
Drops below altitude 10° 18:32:28 10° 333° (NNW) 2,000 5.8 -12.1°
Sets 18:34:46 0° 341° (NNW) 2,911 6.6 -12.5°
